Campbell Airport

Jump to: basic info | weather | frequencies | runways | comments

Related pages: nearby airports | nearby navaids | notams | map

Basic information (top)

Codes: KC81 C81
Location: lon 42.324600, lat -88.074097, elev 788 ft / 240 m msl
Status: small_airport
Scheduled airline service: no
Links: Wikipedia Mobile

Weather (top)

Current conditions for Waukegan Regional Airport 11nm (20km) ENE (rec'd 2014/09/02 22:52Z):

KUGN 022252Z VRB04KT 10SM FEW055 25/14 A2988 RMK AO2 SLP109 T02500139

Airport forecast for Kenosha Regional Airport 18nm (32km) NNE (rec'd 2014/09/02 18:39Z):

TAF KENW 021737Z 0218/0318 26008KT P6SM SCT120 SCT200 
     FM021900 23008KT P6SM SCT120 
     FM030000 22003KT P6SM SCT050 
     FM031000 VRB02KT 3SM BR SKC 
     FM031300 22004KT P6SM SKC 
     FM031700 20007KT P6SM FEW120

Frequencies (top)

Verify before use: may be inaccurate or out of date.

A/D: 120.55 MHz (CHICAGO APP/DEP)
UNIC: 122.7 MHz (CTAF/UNICOM)

Runways (top)

06/24: 3,573 x 40 ft (1,089 x 12 m) — other (COP) — not lighted — threshold 24 displaced 301 ft (92 m)

09/27: 3,270 x 40 ft (997 x 12 m) — paved — lighted

Latest comments (top)

My aviation birthplace.: I did my Private Pilot training here. [read]

More... (top)

See also NOTAMs and nearby airports and navaids, or visit the Campbell Airport page at the main OurAirports website..